Regional Weather Roundup
Issued by NWS

Home | Current Version | Previous Version | Text Only | Print | Product List | Glossary Off
Versions: 1 2 3 4 5 6 7 8 9 10 11 12 13 14 15 16 17 18 19 20 21 22 23 24 25 26 27 28 29 30 31 32 33 34 35 36 37 38 39 40 41 42 43 44 45 46 47 48 49 50

000
ASUS43 KLOT 011508
RWRIL

ILLINOIS REGIONAL WEATHER ROUNDUP
NATIONAL WEATHER SERVICE CHICAGO/ROMEOVILLE IL
1000 AM CDT TUE SEP 01 2015

NOTE: "FAIR" INDICATES FEW OR NO CLOUDS BELOW 12,000 FEET WITH NO
SIGNIFICANT WEATHER AND/OR OBSTRUCTIONS TO VISIBILITY.

* THESE STATIONS ARE NOT UNDER NWS QUALITY CONTROL. THEY ALSO MAY NOT
  REPORT WEATHER SUCH AS PRECIPITATION OR FOG.

ILZ001-002-007-009-015-016-024-011600-
NORTHWEST ILLINOIS

CITY           SKY/WX    TMP DP  RH WIND       PRES   REMARKS
MOLINE         SUNNY     82  71  69 SW9       30.02F HX  86
STERLING*      SUNNY     82  73  74 W9        30.02F HX  88
SAVANNA*       SUNNY     81  70  69 S5        30.02F HX  84
$$

ILZ003-004-008-010-011-017-018-011600-
NORTH CENTRAL ILLINOIS

CITY           SKY/WX    TMP DP  RH WIND       PRES   REMARKS
ROCKFORD       MOSUNNY   78  72  81 S6        30.05S HX  80
FREEPORT*      SUNNY     78  72  81 SW8       30.05S HX  81
ROCHELLE*      MOSUNNY   78  73  82 SW6       30.06S HX  81
DE KALB*       MOSUNNY   76  73  90 S5        30.07S
PERU*          SUNNY     80  71  74 W5        30.06S HX  84
$$

ILZ005-006-012>014-019>023-011600-
NORTHEAST ILLINOIS

CITY           SKY/WX    TMP DP  RH WIND       PRES   REMARKS
CHICAGO-OHARE  MOSUNNY   79  72  79 VRB3      30.05S HX  82
CHICAGO-MIDWAY MOSUNNY   82  71  69 SW7       30.05F HX  86
AURORA         MOSUNNY   79  72  79 S6        30.07S HAZE    HX  82
LANSING*       SUNNY     79  71  77 SW6       30.08S HX  82
JOLIET*        SUNNY     81  74  78 S3        30.07S HX  86
WAUKEGAN       SUNNY     79  72  79 S7        30.04F HX  82
DUPAGE AIRPORT PTSUNNY   79  71  76 SW6       30.06S HX  82
KANKAKEE*      PTSUNNY   78  73  83 S8        30.10R HX  80
WHEELING       SUNNY     81  71  71 VRB6      30.06S HX  85
MORRIS*        SUNNY     79  73  82 CALM      30.06S HX  82
ROMEOVILLE*    MOSUNNY   79  71  77 W5        30.07S HX  81
NORTHERLY ISL    N/A     80  69  69 S3          N/A  HX  83
$$

LMZ740>746-011600-
SOUTHERN LAKE MICHIGAN

STATION/POSITION SKY/WX   TEMP    WIND        PRES    VSBY  WAVE
                          AIR SEA DIR/SP/G                  HT/PER
                          (F)     (DEG/KT/KT) (MB)    (MI)  (FT/S)
SOUTHERN BUOY              71 70  180/ 10/ 12 1017.2S         1
WILMETTE HARBOR            68 62  320/  6/  8   N/A           1
HARRISON CRIB              73     190/ 10/ 11   N/A
BURNHAM HARBOR             81     190/  4/  8   N/A
CALUMET HARBOR             76     190/  5/  7   N/A
BURNS HARBOR               75     190/  8/ 11 1018.6S
MICHIGAN CITY              75     160/  8/  9   N/A
MICHIGAN CITY 6N           74 72  170/  4/  6   N/A           1
ST. JOSEPH                 74 72  240/  4/  4   N/A           1
$$

ILZ025>027-034>036-040-047-049-050-058-095>099-011600-
WEST-CENTRAL ILLINOIS

CITY           SKY/WX    TMP DP  RH WIND       PRES   REMARKS
QUINCY         SUNNY     81  69  67 SW9       30.06F HX  84
GALESBURG*     SUNNY     81  72  75 SW8       30.06S HX  85
MACOMB*        SUNNY     81  71  71 SW7       30.08S HX  85
JACKSONVILLE*  SUNNY     83  72  69 SW7       30.08S HX  88
PITTSFIELD*    SUNNY     82  69  64 SW7       30.09S HX  86
$$

ILZ028>032-037-038-041>044-048-051>054-059>061-011600-
CENTRAL ILLINOIS

CITY           SKY/WX    TMP DP  RH WIND       PRES   REMARKS
PONTIAC        PTSUNNY   80  75  83 SW5       30.09R HX  86
BLOOMINGTON    SUNNY     80  73  79 W9        30.11R HX  84
DECATUR        MOSUNNY   80  70  71 S7        30.11S HX  83
PEORIA         SUNNY     83  71  67 W5        30.07S HX  87
LACON*         SUNNY     81  72  75 SW5       30.05S HX  85
LINCOLN*       SUNNY     84  71  66 SW3       30.08S HX  88
SPRINGFIELD    MOSUNNY   83  72  69 SW8       30.09R HX  88
TAYLORVILLE    SUNNY     81  72  74 SW8       30.10S HX  84
$$

ILZ033-039-045-046-055>057-062-063-011600-
EAST-CENTRAL ILLINOIS

CITY           SKY/WX    TMP DP  RH WIND       PRES   REMARKS
CHAMPAIGN      CLOUDY    72  68  87 S12       30.13R
RANTOUL*       CLOUDY    71  67  87 SE10      30.14R
MATTOON        CLOUDY    69  64  84 SE7       30.14S
PARIS*         CLOUDY    69  65  85 W3        30.14R THUNDER
$$

ILZ079-100>102-011600-
SOUTHWEST ILLINOIS

CITY           SKY/WX    TMP DP  RH WIND       PRES   REMARKS
ALTON          SUNNY     79  72  78 SW7       30.11R HX  82
BELLEVILLE     SUNNY     82  73  74 S2        30.10R HX  88
CAHOKIA*       SUNNY     82  70  66 SW5       30.10R HX  86
SPARTA*        SUNNY     79  70  73 SW5       30.13R HX  82
$$

ILZ064>066-069>071-074>076-080>082-084>086-088>090-092>094-011600-
SOUTH-CENTRAL ILLINOIS

CITY           SKY/WX    TMP DP  RH WIND       PRES   REMARKS
CARBONDALE     SUNNY     80  70  71 SW7       30.13R HX  83
CAIRO*         SUNNY     80  74  83 CALM      30.13S HX  84
EFFINGHAM*     PTSUNNY   76  68  75 E7        30.16R
MARION         SUNNY     82  72  69 SW6       30.15R HX  87
MT. VERNON     SUNNY     81  70  69 S9        30.14R HX  84
CENTRALIA*     SUNNY     83  72  69 SW7       30.12R HX  87
SALEM*         SUNNY     83  69  64 SW6       30.13R HX  86
METROPOLIS*    SUNNY     81  71  72 CALM      30.14S HX  84
$$

ILZ067-068-072-073-078-083-087-091-011600-
SOUTHEAST ILLINOIS

CITY           SKY/WX    TMP DP  RH WIND       PRES   REMARKS
LAWRENCEVILLE  HVY RAIN  71  68  90 N10       30.17R FOG
FLORA*         PTSUNNY   76  68  77 E7        30.16R
FAIRFIELD*     CLOUDY    79  70  73 S6        30.14R HX  82
HARRISBURG*    SUNNY     81  69  67 S5        30.14S HX  84
ROBINSON*      TSTM      68  66  93 S6        30.17S
CARMI*         SUNNY     80  71  75 S3        30.14R HX  83
$$

ABBREVIATIONS USED IN REMARKS
   TC - TEMPERATURE IN CELSIUS
  WCI - WIND CHILL INDEX
   HX - HEAT INDEX
  VSB - VISIBILITY
$$




USA.gov is the U.S. government's official web portal to all federal, state and local government web resources and services.